Location: Foucaucourt
(49.8740°N, 2.7773°E)
Time: 12:20:15
(UTC+00:00)

Daily predictions for brighter satellites

Satellite Brightness Start Highest point End
(mag) Time Altitude Azimuth Time Altitude Azimuth Time Altitude Azimuth
Cosmos 44 Rocket 3.6 20:02:18 10° SW 20:07:31 87° NW 20:12:48 10° NE
USA 186 4.5 20:11:51 10° SW 20:13:51 16° W 20:15:47 10° NW
Cosmos 2219 Rocket 4.3 20:11:11 10° N 20:14:25 15° NNE 20:17:38 10° ENE
Ariane Rocket 3.5 20:14:18 10° S 20:19:20 64° WSW 20:24:24 10° NNW
GEOS 3 Rocket 4.4 20:15:21 10° NE 20:20:30 58° NW 20:25:32 10° WSW
SL-16 R/B 2.7 20:16:53 10° NNW 20:22:26 49° NE 20:27:55 10° SE
Cosmos 1782 3.8 20:22:55 10° N 20:26:32 31° ENE 20:30:03 10° SE
Cosmos 371 Rocket 3.5 20:22:24 10° NNW 20:27:14 76° WSW 20:32:02 10° SSE
ARIANE 5 R/B 3.4 20:26:58 10° SE 20:31:05 38° ENE 20:35:13 10° N
Cosmos 1271 Rocket 3.2 20:29:17 10° N 20:33:10 48° ENE 20:36:55 11° SSE
USA 276 2.2 20:32:40 10° W 20:35:47 60° SSW 20:38:32 13° ESE
BREEZE-M DEB (TANK) 2.7 20:34:12 10° W 20:36:59 48° SSW 20:43:14 11° SE
SPOT 1/Viking Rocket 3.6 20:32:03 10° SSE 20:37:15 80° ENE 20:42:29 10° NNW
Cosmos 1076 Rocket 3.7 20:34:42 10° SSW 20:39:03 78° WNW 20:43:27 10° N
Cosmos 1151 Rocket 3.9 20:36:07 10° N 20:40:09 36° ENE 20:43:40 13° SE
ATLAS 5 CENTAUR R/B 4.0 20:36:58 10° NNW 20:40:54 22° NNE 20:45:22 10° ENE
OBJECT-B 4.0 20:41:05 10° WSW 20:41:57 11° W 20:42:50 10° WNW
ATLAS 2AS CENTAUR R/B 3.5 20:37:19 10° SW 20:45:12 69° NW 20:52:51 10° NE
Cosmos 923 Rocket 4.4 20:43:20 10° S 20:48:21 43° ESE 20:53:23 10° NE
ATLAS 3B R/B 3.3 20:42:38 10° NW 20:49:31 55° WSW 20:56:38 10° SSE
Cosmos 1833 Rocket 4.4 20:44:58 10° WSW 20:50:11 37° NW 20:55:25 10° NNE
Terra 2.6 20:47:56 13° SE 20:51:43 37° ENE 20:56:05 10° N
USA 267 4.4 20:49:51 10° E 20:54:15 19° ESE 20:58:37 10° SSE
SPOT 5 3.0 20:50:48 14° SE 20:54:17 50° ENE 20:58:34 10° N
Cosmos 2082 Rocket 2.9 20:51:07 10° SW 20:56:40 58° NW 21:02:17 10° NNE
Cosmos 1092 Rocket 4.0 20:50:48 10° S 20:57:02 76° E 21:03:22 10° NNE
Meteor 2-19 Rocket 4.4 20:51:06 10° S 20:57:09 85° E 21:03:15 10° N
Cosmos 2056 Rocket 4.1 20:52:52 10° NNW 20:58:04 45° ENE 21:02:09 15° SE
Cosmos 1633 4.0 20:55:04 10° SW 20:58:27 38° WNW 21:01:52 10° N
BREEZE-M DEB (TANK) 1.5 20:59:34 10° WSW 21:02:02 61° S 21:03:12 19° E
Cosmos 332 Rocket 4.3 20:59:43 10° NNW 21:04:32 59° WSW 21:08:58 12° S
ERS-1 Rocket 3.1 21:00:35 15° SSE 21:04:44 66° ENE 21:09:44 10° N
Cosmos 2360 Rocket 2.7 21:00:19 10° NNW 21:05:48 49° NE 21:10:08 16° SE
SL-27 R/B 4.1 21:06:23 17° ESE 21:06:59 18° E 21:09:27 10° NE
NOSS 2-1 (D) 4.3 21:08:17 19° ESE 21:08:17 19° ESE 21:10:31 10° ENE
Cosmos 158 Rocket 4.0 21:03:01 10° SSW 21:08:12 86° WNW 21:13:33 10° NNE
Cosmos 2026 Rocket 4.0 21:03:42 10° S 21:10:01 77° E 21:16:18 10° NNE
GP-B 3.1 21:07:41 10° N 21:12:10 87° E 21:16:14 12° S
ISS -2.1 21:11:47 10° W 21:14:30 22° SW 21:15:56 17° S
Cosmos 2333 Rocket 3.3 21:11:05 10° NNW 21:16:13 34° NE 21:20:38 13° ESE
Spot 2 Rocket 3.7 21:14:48 13° S 21:19:22 69° WSW 21:24:29 10° NNW
Cosmos 1371 Rocket 4.1 21:14:16 10° NNW 21:19:40 71° ENE 21:23:22 20° SE
Cosmos 1812 2.9 21:17:05 10° N 21:20:55 58° ENE 21:23:04 24° SSE
Cosmos 2112 Rocket 4.2 21:17:49 10° S 21:22:56 54° ESE 21:28:05 10° NNE
Cosmos 220 Rocket 4.0 21:18:46 10° NNW 21:23:08 82° ENE 21:25:50 23° SSE
Cosmos 1680 Rocket 3.5 21:18:12 10° S 21:23:24 63° ESE 21:28:36 10° NNE
CZ-2C R/B 4.1 21:19:33 10° N 21:24:04 64° WNW 21:28:28 10° SSW
Cosmos 1980 Rocket 4.3 21:22:32 10° NW 21:26:32 20° W 21:30:33 10° SSW
Okean 3 Rocket 3.6 21:24:58 16° S 21:28:30 73° E 21:33:02 10° NNE
USA 234 3.8 21:24:08 10° E 21:30:32 58° NNE 21:36:57 10° WNW
Cosmos 292 Rocket 4.3 21:26:14 10° NNW 21:30:53 49° ENE 21:33:40 22° SE
Cosmos 2237 Rocket 4.4 21:32:29 10° N 21:36:21 18° NE 21:40:12 10° ENE
Cosmos 2322 Rocket 2.4 21:32:28 10° NNW 21:38:04 67° WSW 21:41:46 22° SSE
Resurs 01 Rocket 4.2 21:39:04 10° SW 21:41:50 16° W 21:44:37 10° NW
Cosmos 1408 Rocket 3.7 21:40:12 26° SSE 21:42:23 54° E 21:46:38 10° NNE
Meteor 2-14 Rocket 4.4 21:43:59 16° S 21:49:05 83° E 21:55:16 10° NNE
Cosmos 1553 Rocket 4.0 21:45:10 10° NNW 21:51:15 75° W 21:55:36 20° S
Cosmos 2084 3.3 21:48:52 16° SSW 21:51:56 56° SE 21:56:02 10° NE
CZ-4B DEB 4.3 21:53:29 41° S 21:54:26 74° W 21:57:36 10° NNW
Gbstr 26 Del rocket 3.9 21:51:21 10° W 21:54:38 28° SW 21:55:27 26° SSW
Cosmos 2266 Rocket 4.1 21:53:29 25° SSE 21:57:02 57° E 22:03:09 10° NNE
Cosmos 1862 3.3 21:57:03 27° SSW 21:59:10 85° W 22:03:10 10° N
Cosmos 2219 Rocket 2.7 21:54:16 10° NNW 21:59:45 52° NE 22:02:58 24° ESE
Cosmos 1624 Rocket 4.2 21:54:58 10° NNW 22:00:08 63° WSW 22:02:57 27° S
Cosmos 2228 Rocket 3.6 22:00:13 10° N 22:04:30 46° ENE 22:06:05 32° SE
Cosmos 1515 Rocket 3.6 22:00:14 10° NNW 22:04:41 77° W 22:06:43 32° S
H-2A R/B 3.4 22:01:12 10° NNE 22:05:25 74° ESE 22:07:14 33° S
NOSS 2-1 (E) 2.7 22:05:21 48° S 22:06:02 62° SE 22:09:28 10° NE
SL-16 R/B 3.4 22:01:20 10° NW 22:06:21 33° WSW 22:09:55 17° SSW
ARIANE 5 R/B 4.3 22:04:24 13° SSW 22:07:38 28° W 22:11:29 10° NW
NOSS 3-1 (C) 4.0 22:01:29 10° NW 22:08:49 87° NE 22:14:30 24° SE
Cosmos 2333 4.2 22:03:45 10° NNW 22:09:24 81° ENE 22:12:13 31° SE
Cosmos 1420 Rocket 4.1 22:05:50 10° NNW 22:11:10 75° WSW 22:13:43 31° S
COSMOS 2455 3.4 22:09:10 29° SSE 22:11:16 38° ESE 22:16:47 10° NE
USA 276 4.3 22:09:26 10° WSW 22:10:46 15° SW 22:10:46 15° SW
Cosmos 883 Rocket 4.5 22:07:22 10° N 22:13:37 76° E 22:16:57 30° SSE
COSMOS 2428 3.1 22:08:52 10° NNW 22:14:30 56° NE 22:17:35 26° ESE
Cosmos 1655 Rocket 4.0 22:12:44 23° S 22:16:53 86° E 22:23:21 10° N
S3M 4.3 22:15:11 10° NNW 22:21:32 67° W 22:25:25 25° S
USA 229 DEB 4.0 22:15:48 10° NW 22:23:03 73° NE 22:28:16 22° SE
USA 229 4.0 22:15:54 10° NW 22:23:09 73° NE 22:28:23 22° SE
Spot 4 4.1 22:21:45 34° SE 22:23:38 57° ENE 22:28:23 10° N
ATLAS 5 CENTAUR R/B 2.7 22:21:16 10° NW 22:26:31 57° NE 22:30:39 21° ESE
Cosmos 1174 3.5 22:23:39 10° NW 22:26:29 49° WSW 22:26:29 49° WSW
Terra 3.2 22:26:49 19° SW 22:29:31 31° W 22:33:46 10° NNW
Cosmos 1452 Rocket 3.4 22:25:25 10° NNW 22:30:43 86° ENE 22:32:49 38° SSE
Cosmos 1707 Rocket 4.3 22:26:59 10° N 22:31:07 40° ENE 22:32:18 33° ESE
COSMOS 2487 2.9 22:31:49 42° E 22:31:49 42° E 22:34:42 10° NE
ALOS 2 3.3 22:33:57 32° ESE 22:35:20 42° ENE 22:39:30 10° N
USA 267 3.2 22:31:42 10° ENE 22:38:11 61° SE 22:44:39 10° SW
Meteor 1-27 Rocket 3.9 22:36:03 10° NNW 22:41:38 66° W 22:44:14 33° S
SL-27 R/B 3.7 22:39:50 22° WSW 22:41:44 40° WNW 22:45:11 10° N
NOSS 3-1 (A) 4.0 22:36:10 10° NW 22:43:31 87° NE 22:48:48 26° SE
Cosmos 2360 Rocket 3.3 22:44:39 10° NW 22:49:37 33° WSW 22:51:53 24° SW
IRIDIUM 104 4.5 22:44:58 10° N 22:50:11 69° W 22:52:18 36° SSW
Cosmos 1805 Rocket 3.5 22:49:13 49° S 22:50:23 85° E 22:54:52 10° N
NOSS 2-1 (C) 4.0 22:48:04 15° WSW 22:50:30 43° NW 22:53:53 10° NE
Cosmos 1110 Rocket 4.0 22:51:24 10° NNW 22:56:46 77° ENE 22:58:40 41° SE
Meteor 1-20 Rocket 4.2 22:54:51 40° S 22:56:55 73° E 23:02:37 10° NNE
NOSS 2-1 (D) 4.3 22:55:30 12° WSW 22:58:14 38° NW 23:01:35 10° NNE
Cosmos 1980 4.3 22:52:49 10° NNW 22:58:21 50° NE 23:01:19 26° ESE
Cosmos 2333 Rocket 2.5 22:55:16 10° NW 23:00:45 52° WSW 23:02:38 37° SSW
Cosmos 1500 Rocket 4.4 22:59:40 27° SW 23:01:37 44° WNW 23:05:54 10° N
Cosmos 1331 Rocket 4.0 22:56:56 10° NNW 23:02:12 77° ENE 23:03:58 42° SE
Cosmos 1244 Rocket 4.5 23:03:47 38° SSE 23:06:14 71° E 23:12:25 10° NNE
Cosmos 972 Rocket 4.1 23:07:27 31° SW 23:09:59 71° WNW 23:15:00 10° NNE
COBE Rocket 4.4 23:09:07 36° SW 23:10:24 46° W 23:14:57 10° NNW
Cosmos 2322 4.2 23:05:29 10° NW 23:10:57 47° WSW 23:12:44 35° SSW
NOSS 0 Rocket 3.9 23:07:03 10° NNW 23:13:21 85° ENE 23:16:01 37° SE
USA 234 3.2 23:10:02 30° SE 23:13:29 73° SW 23:20:04 10° WNW
Cosmos 2297 Rocket 3.2 23:17:11 28° ESE 23:18:02 30° ESE 23:22:52 10° NE
Cosmos 468 4.4 23:16:08 40° SSW 23:18:03 86° WNW 23:23:20 10° NNE
Lacrosse 5 3.2 23:21:59 23° ESE 23:21:59 23° ESE 23:25:00 10° ENE
Cosmos 2322 Rocket 4.5 23:19:27 10° WNW 23:21:00 11° W 23:22:34 10° WSW
Cosmos 2237 Rocket 2.4 23:15:52 10° NNW 23:21:32 66° ENE 23:24:02 34° SE
Cosmos 2084 Rocket 3.6 23:18:50 10° NW 23:23:00 70° NE 23:24:07 47° ESE
NOSS 2-2 (E) 4.5 23:19:06 10° NW 23:24:14 73° NE 23:28:32 24° SE
Meteor 1-18 Rocket 4.2 23:19:02 10° NNW 23:24:56 88° W 23:26:57 43° S
Cosmos 1500 3.1 23:26:57 73° ESE 23:27:04 74° E 23:30:55 10° NNE
Cosmos 1470 Rocket 3.9 23:29:03 46° ESE 23:29:30 48° E 23:33:40 10° NNE
Cosmos 2227 Rocket 3.3 23:28:53 26° ESE 23:29:46 28° ESE 23:34:29 10° NE
Sich 1 3.6 23:28:46 38° WSW 23:29:57 50° WNW 23:34:12 10° N
Okean 1 3.5 23:27:28 10° NNW 23:31:26 58° W 23:31:46 56° WSW
Meteor 1-25 Rocket 4.4 23:30:16 35° SW 23:32:34 66° WNW 23:38:08 10° N
Cosmos 1633 Rocket 2.9 23:33:06 63° S 23:33:47 89° E 23:38:11 10° N
Cosmos 494 Rocket 3.9 23:33:17 42° SW 23:35:02 78° WNW 23:40:12 10° NNE
Cosmos 1933 Rocket 4.4 23:35:34 36° ESE 23:36:10 38° E 23:40:18 10° NNE
Cosmos 1666 Rocket 3.7 23:37:07 53° SW 23:38:00 70° WNW 23:42:28 10° N
Cosmos 1048 Rocket 4.4 23:39:39 30° SW 23:41:59 56° WNW 23:47:03 10° NNE
Cosmos 2219 Rocket 3.2 23:38:37 10° NW 23:43:27 30° WSW 23:44:40 28° SW
SL-08 R/B 4.5 23:45:17 39° SSW 23:47:44 81° W 23:53:56 10° N
NOSS 2-2 (C) 4.3 23:43:21 10° NW 23:48:27 84° NE 23:52:23 27° SE
SL-16 R/B 3.1 23:43:22 10° NNW 23:48:47 43° NE 23:52:42 18° ESE
Cosmos 1269 Rocket 4.2 23:50:05 47° SSE 23:51:13 58° ESE 23:56:25 10° NNE
PSLV R/B 4.1 23:46:41 10° NNE 23:51:21 51° E 23:52:12 45° SE
Resurs 1-4 Rocket 4.4 23:50:49 10° ENE 23:52:53 12° E 23:54:57 10° ESE
